AAL2478 KCLT-TNCM

Flight info

Callsign AAL2478
Flight time N/A
Altitude 37000
Route KWEEN5 PITRW Y436 JAINS L451 LETON DCT IORIO DCT FIPEK Y355 SLUGO
Aircraft B738/M-SDE2E3FGHIRWXY/LB1

Departure

Time N/A
Airport Charlotte Douglas International Airport (KCLT)

Arrival

Time 2026-05-04 17:32
Airport Princess Juliana International Airport (TNCM)
Time Latitude Longitude Altitude Speed Heading
2026-05-04 17:04 20.75482 -67.83709 37089 ft 487 kts 129°
2026-05-04 17:05 20.58680 -67.60544 37107 ft 499 kts 130°
2026-05-04 17:05 20.41575 -67.37215 37030 ft 496 kts 130°
2026-05-04 17:06 20.24764 -67.14377 37054 ft 484 kts 130°
2026-05-04 17:06 20.16490 -67.03163 37055 ft 479 kts 130°
2026-05-04 17:07 19.97379 -66.76867 37083 ft 488 kts 121°
2026-05-04 17:07 19.80501 -66.42345 37053 ft 495 kts 119°
2026-05-04 17:08 19.63424 -66.08481 37048 ft 481 kts 119°
2026-05-04 17:09 19.57739 -65.97228 37075 ft 482 kts 119°
2026-05-04 17:09 19.45972 -65.74006 37106 ft 496 kts 119°
2026-05-04 17:10 19.15886 -65.15036 37051 ft 475 kts 118°
2026-05-04 17:11 19.03206 -64.90357 37115 ft 483 kts 118°
2026-05-04 17:11 18.91648 -64.67945 37004 ft 472 kts 118°
2026-05-04 17:12 18.90100 -64.64951 37031 ft 457 kts 118°
2026-05-04 17:12 18.87032 -64.59021 35453 ft 469 kts 118°
2026-05-04 17:13 18.82215 -64.49721 32717 ft 491 kts 118°
2026-05-04 17:14 18.77261 -64.40170 30379 ft 497 kts 118°
2026-05-04 17:14 18.75603 -64.36977 29559 ft 497 kts 118°
2026-05-04 17:14 18.72293 -64.30607 27863 ft 494 kts 117°
2026-05-04 17:15 18.70634 -64.27416 26823 ft 498 kts 118°
2026-05-04 17:15 18.67332 -64.21070 25162 ft 494 kts 118°
2026-05-04 17:16 18.64121 -64.14910 23667 ft 467 kts 118°
2026-05-04 17:16 18.59482 -64.06013 19954 ft 457 kts 120°
2026-05-04 17:17 18.57955 -64.03086 18810 ft 455 kts 120°
2026-05-04 17:17 18.53475 -63.94513 15876 ft 429 kts 120°
2026-05-04 17:18 18.52054 -63.91796 15008 ft 419 kts 120°
2026-05-04 17:18 18.49335 -63.86600 13742 ft 393 kts 119°
2026-05-04 17:19 18.46759 -63.81684 12498 ft 380 kts 120°
2026-05-04 17:19 18.44132 -63.76673 11762 ft 383 kts 119°
2026-05-04 17:20 18.41655 -63.71950 11412 ft 355 kts 119°
2026-05-04 17:20 18.39348 -63.67559 11117 ft 331 kts 120°
2026-05-04 17:20 18.37996 -63.65637 10820 ft 325 kts 135°
2026-05-04 17:21 18.34733 -63.62428 10182 ft 314 kts 137°
2026-05-04 17:21 18.31675 -63.59458 9562 ft 293 kts 137°
2026-05-04 17:22 18.30200 -63.58012 9214 ft 288 kts 136°
2026-05-04 17:22 18.28758 -63.56592 8900 ft 281 kts 136°
2026-05-04 17:23 18.24530 -63.52406 8007 ft 276 kts 136°
2026-05-04 17:23 18.23154 -63.51041 7724 ft 274 kts 136°
2026-05-04 17:23 18.20399 -63.48306 7134 ft 271 kts 136°
2026-05-04 17:24 18.19033 -63.46950 6844 ft 269 kts 136°
2026-05-04 17:24 18.14978 -63.42925 5857 ft 268 kts 135°
2026-05-04 17:25 18.13596 -63.41553 5363 ft 274 kts 135°
2026-05-04 17:25 18.10821 -63.38801 4680 ft 271 kts 135°
2026-05-04 17:26 18.08168 -63.36172 4089 ft 253 kts 135°
2026-05-04 17:26 18.04489 -63.32527 3318 ft 233 kts 135°
2026-05-04 17:27 18.02231 -63.30226 2810 ft 218 kts 124°
2026-05-04 17:27 18.01882 -63.27310 2403 ft 193 kts 92°
2026-05-04 17:28 18.02111 -63.24690 2148 ft 173 kts 84°
2026-05-04 17:29 18.02623 -63.21181 1503 ft 147 kts 86°
2026-05-04 17:29 18.03072 -63.18087 962 ft 140 kts 85°
2026-05-04 17:30 18.03493 -63.15119 501 ft 140 kts 83°
2026-05-04 17:31 18.03787 -63.13062 260 ft 141 kts 83°
2026-05-04 17:31 18.04161 -63.10409 27 ft 57 kts 81°
2026-05-04 17:32 18.04191 -63.10183 29 ft 2 kts 346°
2026-05-04 17:33 18.04144 -63.10533 27 ft 27 kts 262°
2026-05-04 17:33 18.04117 -63.10724 26 ft 26 kts 262°
2026-05-04 17:34 18.04145 -63.11005 27 ft 6 kts 326°
2026-05-04 17:34 18.04168 -63.11037 27 ft 6 kts 272°
2026-05-04 17:35 18.04139 -63.11243 27 ft 13 kts 263°
2026-05-04 17:35 18.04235 -63.11311 28 ft 11 kts 12°
2026-05-04 17:35 18.04284 -63.11249 28 ft 12 kts 62°
2026-05-04 17:36 18.04315 -63.11222 28 ft 4 kts 348°
2026-05-04 17:36 18.04344 -63.11227 28 ft 2 kts 352°